When you browse on this site, cookies collect data to enhance your experience and personalize the content and advertising you see.
Visit our Privacy Policy to learn more. By continuing to use the site, you agree to this use of cookies and data.
  • en Belgique
  • Liste des pays
  • À 7 jours
  • Température de l'eau
  • Carte météo
  • Widgets météo
  • user-avatar
    Se connecter

    Météo par heure à Lemnos

    Ce jour, 22 Janvier, Mercredi

    Heure Température Précipitation Vent Pression Humidité
    00:00 +6°C° 0 mm 4 m/s 773 mmHg 60%
    01:00 +6°C° 0 mm 4 m/s 773 mmHg 60%
    02:00 +6°C° 0 mm 4 m/s 772 mmHg 60%
    03:00 +6°C° 0 mm 4 m/s 772 mmHg 61%
    04:00 +6°C° 0 mm 4 m/s 772 mmHg 61%
    05:00 +6°C° 0 mm 4 m/s 771 mmHg 62%
    06:00 +6°C° 0 mm 4 m/s 771 mmHg 63%
    07:00 +6°C° 0 mm 4 m/s 771 mmHg 63%
    08:00 +6°C° 0 mm 4 m/s 771 mmHg 64%
    09:00 +7°C° 0 mm 3 m/s 771 mmHg 62%
    10:00 +8°C° 0 mm 3 m/s 771 mmHg 60%
    11:00 +8°C° 0 mm 3 m/s 770 mmHg 58%
    12:00 +8°C° 0 mm 2 m/s 770 mmHg 57%
    13:00 +8°C° 0 mm 2 m/s 769 mmHg 57%
    14:00 +9°C° 0 mm 2 m/s 768 mmHg 57%
    15:00 +9°C° 0 mm 2 m/s 767 mmHg 58%
    16:00 +9°C° 0 mm 2 m/s 767 mmHg 60%
    17:00 +9°C° 0 mm 2 m/s 766 mmHg 62%
    18:00 +9°C° 0 mm 2 m/s 766 mmHg 61%
    19:00 +8°C° 0 mm 2 m/s 766 mmHg 61%
    20:00 +8°C° 0 mm 2 m/s 765 mmHg 61%
    21:00 +8°C° 0 mm 2 m/s 765 mmHg 61%
    22:00 +8°C° 0 mm 2 m/s 765 mmHg 61%
    23:00 +8°C° 0 mm 2 m/s 764 mmHg 62%

    Demain, 23 Janvier, Jeudi

    Heure Température Précipitation Vent Pression Humidité
    00:00 +8°C° 0 mm 2 m/s 764 mmHg 61%
    01:00 +8°C° 0 mm 2 m/s 764 mmHg 60%
    02:00 +8°C° 0 mm 2 m/s 763 mmHg 59%
    03:00 +8°C° 0 mm 2 m/s 763 mmHg 58%
    04:00 +8°C° 0 mm 2 m/s 762 mmHg 57%
    05:00 +8°C° 0 mm 2 m/s 762 mmHg 57%
    06:00 +8°C° 0 mm 4 m/s 763 mmHg 60%
    07:00 +9°C° 0 mm 7 m/s 764 mmHg 64%
    08:00 +10°C° 0 mm 9 m/s 765 mmHg 68%
    09:00 +8°C° 0 mm 11 m/s 765 mmHg 66%
    10:00 +6°C° 0 mm 14 m/s 766 mmHg 64%
    11:00 +5°C° 0 mm 16 m/s 767 mmHg 62%
    12:00 +5°C° 0 mm 15 m/s 768 mmHg 60%
    13:00 +7°C° 0 mm 13 m/s 768 mmHg 59%
    14:00 +7°C° 0 mm 12 m/s 769 mmHg 57%
    15:00 +7°C° 0 mm 11 m/s 769 mmHg 56%
    16:00 +7°C° 0 mm 11 m/s 769 mmHg 54%
    17:00 +7°C° 0 mm 10 m/s 769 mmHg 52%
    18:00 +7°C° 0 mm 9 m/s 770 mmHg 53%
    19:00 +7°C° 0 mm 9 m/s 770 mmHg 53%
    20:00 +6°C° 0 mm 8 m/s 770 mmHg 53%
    21:00 +6°C° 0 mm 8 m/s 771 mmHg 53%
    22:00 +6°C° 0 mm 7 m/s 771 mmHg 52%
    23:00 +6°C° 0 mm 7 m/s 772 mmHg 51%

    Après-demain, 24 Janvier, Vendredi

    Heure Température Précipitation Vent Pression Humidité
    00:00 +6°C° 0 mm 7 m/s 772 mmHg 51%
    01:00 +6°C° 0 mm 7 m/s 772 mmHg 50%
    02:00 +6°C° 0 mm 7 m/s 772 mmHg 50%
    03:00 +6°C° 0 mm 7 m/s 772 mmHg 50%
    04:00 +7°C° 0 mm 6 m/s 772 mmHg 50%
    05:00 +5°C° 0 mm 6 m/s 772 mmHg 51%
    06:00 +5°C° 0 mm 6 m/s 772 mmHg 51%
    07:00 +6°C° 0 mm 5 m/s 772 mmHg 52%
    08:00 +6°C° 0 mm 5 m/s 772 mmHg 53%
    09:00 +6°C° 0 mm 4 m/s 772 mmHg 52%
    10:00 +6°C° 0 mm 4 m/s 772 mmHg 50%
    11:00 +8°C° 0 mm 3 m/s 773 mmHg 49%
    12:00 +8°C° 0 mm 3 m/s 772 mmHg 50%
    13:00 +8°C° 0 mm 2 m/s 772 mmHg 50%
    14:00 +8°C° 0 mm 2 m/s 771 mmHg 50%
    15:00 +9°C° 0 mm 1 m/s 771 mmHg 52%
    16:00 +9°C° 0 mm 1 m/s 770 mmHg 54%
    17:00 +8°C° 0 mm 1 m/s 770 mmHg 56%
    18:00 +8°C° 0 mm 1 m/s 770 mmHg 57%
    19:00 +8°C° 0 mm 1 m/s 770 mmHg 58%
    20:00 +8°C° 0 mm 1 m/s 770 mmHg 59%
    21:00 +8°C° 0 mm 1 m/s 770 mmHg 61%
    22:00 +7°C° 0 mm 2 m/s 769 mmHg 63%
    23:00 +7°C° 0 mm 2 m/s 769 mmHg 64%

    25 Janvier, Samedi

    Heure Température Précipitation Vent Pression Humidité
    00:00 +7°C° 0 mm 2 m/s 769 mmHg 66%
    01:00 +7°C° 0 mm 3 m/s 768 mmHg 67%
    02:00 +7°C° 0 mm 3 m/s 768 mmHg 69%
    03:00 +7°C° 0 mm 3 m/s 768 mmHg 69%
    04:00 +7°C° 0 mm 4 m/s 767 mmHg 70%
    05:00 +7°C° 0 mm 4 m/s 767 mmHg 70%
    06:00 +7°C° 0 mm 4 m/s 767 mmHg 71%
    07:00 +7°C° 0 mm 4 m/s 767 mmHg 72%
    08:00 +7°C° 0 mm 4 m/s 767 mmHg 73%
    09:00 +8°C° 0 mm 5 m/s 767 mmHg 70%
    10:00 +9°C° 0 mm 5 m/s 767 mmHg 68%
    11:00 +12°C° 0 mm 5 m/s 767 mmHg 66%
    12:00 +12°C° 0 mm 5 m/s 767 mmHg 66%
    13:00 +12°C° 0 mm 5 m/s 766 mmHg 66%
    14:00 +12°C° 0 mm 5 m/s 766 mmHg 66%
    15:00 +12°C° 0 mm 5 m/s 766 mmHg 67%
    16:00 +12°C° 0 mm 5 m/s 766 mmHg 68%
    17:00 +11°C° 0 mm 4 m/s 765 mmHg 70%
    18:00 +11°C° 0 mm 4 m/s 766 mmHg 70%
    19:00 +11°C° 0 mm 4 m/s 766 mmHg 71%
    20:00 +10°C° 0 mm 4 m/s 766 mmHg 71%
    21:00 +10°C° 0 mm 4 m/s 766 mmHg 71%
    22:00 +10°C° 0 mm 4 m/s 766 mmHg 71%
    23:00 +10°C° 0 mm 3 m/s 766 mmHg 70%

    26 Janvier, Dimanche

    Heure Température Précipitation Vent Pression Humidité
    00:00 +10°C° 0 mm 3 m/s 766 mmHg 70%
    01:00 +10°C° 0 mm 2 m/s 766 mmHg 70%
    02:00 +10°C° 0 mm 2 m/s 766 mmHg 70%
    03:00 +10°C° 0 mm 2 m/s 766 mmHg 70%
    04:00 +10°C° 0 mm 2 m/s 766 mmHg 70%
    05:00 +11°C° 0 mm 1 m/s 765 mmHg 70%
    06:00 +11°C° 0 mm 1 m/s 766 mmHg 70%
    07:00 +11°C° 0 mm 1 m/s 766 mmHg 70%
    08:00 +11°C° 0 mm 1 m/s 766 mmHg 70%
    09:00 +12°C° 0 mm 1 m/s 766 mmHg 69%
    10:00 +13°C° 0 mm 1 m/s 766 mmHg 67%
    11:00 +14°C° 0 mm 1 m/s 767 mmHg 66%
    12:00 +14°C° 0 mm 2 m/s 766 mmHg 68%
    13:00 +14°C° 0 mm 2 m/s 766 mmHg 71%
    14:00 +15°C° 0 mm 2 m/s 765 mmHg 74%
    15:00 +14°C° 0 mm 2 m/s 765 mmHg 77%
    16:00 +13°C° 0 mm 3 m/s 765 mmHg 80%
    17:00 +13°C° 0 mm 3 m/s 765 mmHg 84%
    18:00 +13°C° 0 mm 3 m/s 765 mmHg 84%
    19:00 +14°C° 0 mm 4 m/s 765 mmHg 84%
    20:00 +14°C° 0 mm 4 m/s 765 mmHg 84%
    21:00 +14°C° 0 mm 3 m/s 765 mmHg 82%
    22:00 +13°C° 0 mm 3 m/s 765 mmHg 81%
    23:00 +13°C° 0 mm 3 m/s 765 mmHg 79%

    27 Janvier, Lundi

    Heure Température Précipitation Vent Pression Humidité
    00:00 +14°C° 0 mm 2 m/s 764 mmHg 81%
    01:00 +13°C° 0 mm 2 m/s 764 mmHg 83%
    02:00 +13°C° 0 mm 2 m/s 764 mmHg 86%
    03:00 +13°C° 0 mm 2 m/s 764 mmHg 85%
    04:00 +13°C° 0 mm 2 m/s 764 mmHg 85%
    05:00 +12°C° 0 mm 2 m/s 764 mmHg 84%
    06:00 +12°C° 0 mm 2 m/s 764 mmHg 83%
    07:00 +12°C° 0 mm 2 m/s 764 mmHg 82%
    08:00 +12°C° 0 mm 2 m/s 764 mmHg 80%
    09:00 +13°C° 0 mm 2 m/s 765 mmHg 78%
    10:00 +14°C° 0 mm 2 m/s 765 mmHg 75%
    11:00 +14°C° 0 mm 2 m/s 765 mmHg 73%
    12:00 +14°C° 0 mm 2 m/s 765 mmHg 72%
    13:00 +14°C° 0 mm 2 m/s 765 mmHg 72%
    14:00 +14°C° 0 mm 2 m/s 765 mmHg 71%
    15:00 +14°C° 0 mm 2 m/s 764 mmHg 72%
    16:00 +14°C° 0 mm 2 m/s 764 mmHg 72%
    17:00 +13°C° 0 mm 2 m/s 764 mmHg 73%
    18:00 +13°C° 0 mm 2 m/s 765 mmHg 73%
    19:00 +13°C° 0 mm 2 m/s 765 mmHg 74%
    20:00 +13°C° 0 mm 2 m/s 765 mmHg 74%
    21:00 +12°C° 0 mm 3 m/s 766 mmHg 74%
    22:00 +12°C° 0 mm 3 m/s 766 mmHg 75%
    23:00 +12°C° 0 mm 3 m/s 766 mmHg 75%
    Voir plus